STARLINK-1070 (44956 NORAD) Tracking and Keplerian Element Data

This shows tracking and keplerian element data for the satellite.

Feedback or suggestion? Click here.




ElementValue
Catalog44956
NameSTARLINK-1070
Epoch Orbit728
Epoch Day53.25001157
Epoch Year2020
RAAN167.2146
Inclination52.9982
Eccentricity0.00023
Argument of Perigee325.0336
Mean Anonmoly167.8777
Mean Motion15.7290655
Decay Rate0.002051
L11 44956U 20001AU 20053.25001157 .00205100 00000-0 14480-2 0 9999
L22 44956 52.9982 167.2146 0002300 325.0336 167.8777 15.72906550 7289

Live tracking and technical data element details for STARLINK-1070 (NORAD 44956). STARLINK-1070 can be tracked NOW for your location showing map with azimuth and elevation plus other details from your city location.

Track the satellite on the map from your city or location and see movement details for azimuth, elevation, latitude, longitude, range, height, and movement on the map or in text.







IsCatalogInMostPopularTable: catalog: 44956, numindb: 12
Update: records affected: 1



GetName: 44956 STARLINK-1070

Hit Count: updated at: Wed, 26 Feb 2020 16:45:35 GMT